SL-24 R/B, 40047

Orbit data source: Space-Track

SL-24 R/B, 40047 is space debris in SSO originally from a launch on Thu, 19 Jun 2014 UTC launched from the Orenburg, Russia (OREN). Debris objects in space refer to the collection of defunct objects orbiting the Earth. Examples of debris include non-operational satellites, rocket bodies, and fragments generated from explosions, collisions, or faulty payload assembly.

Loading next visibility...
Identifier
40047, 2014-033AP
Orbit
SSO
Last TLE update
15 hours ago
Origin
Manufacturer
Yuzhnoe
Mission
Spacecraft
Bus & Motor
15A18-BR, Unknown motor
Mass
~1,000 kg wet, ~1,000 kg dry
Launch date (UTC)
2014-06-19 (11 years ago)
Launch vehicle
Unknown
Launch site
Orenburg, Russia (OREN)
Object type
Payload
Rocket body
Debris
Shape & HBR
Cyl, 3 m
Radar Cross Section
10.603 m², Large (>1 m²)

Expand to show TLE details & history

TLE from 15 hours ago
0 SL-24 R/B
1 40047U 14033AP  25167.18467008  .00000023  00000-0  26204-4 0  9994
2 40047  97.9054  88.5664 0567593 194.8267 163.5620 13.61879779546219
Epoch: 2025-06-16T04:25Z
TLE epoch observation values (Epoch: 2025-06-16T04:25:55.494Z)
Latitude
-0.00005°
Longitude
117.38613°
Altitude
1,436.808 km
Speed
6.945 km/s
True Right ascension
05h 54m 15s
True Declination
0° 00' 00"
Sunlit
Object was in daylight at epoch
Visualization orbit readout
Latitude
60.58448°
Longitude
-47.93252°
Altitude
906.025 km
Speed
7.471 km/s
Apparent Right ascension
18h 16m 40s
Apparent Declination
14° 59' 28"
Sunlit
Object is in daylight
Visualization observer readout
Local Sidereal Time
05:50:08
Azimuth
352.197° N
Elevation
-34.746°
Doppler factor
1
Orbital elements
Apogee altitude
1,446.313 km
Perigee altitude
605.799 km
Semi-major axis
7,404.193 km
Eccentricity
0.05676
Inclination
97.9054°
RAAN
88.5664°
Arg. of periapsis
194.8267°
True anomaly
Unknown
Mean anomaly
163.562°
Eccentric anomaly
Unknown
Mean motion
3.40664 °/min
Orbital period
105.68 mins
BSTAR
0.000026204
Loading maneuver chart data...
Loading SW <> Apogee altitude chart data...
Loading historical data...
Loading historical data...
Loading historical data...
Loading historical data...
Loading historical data...
Loading historical data...
Loading historical data...

SL-24 R/B Visibility forecast

Observer location: undefined°, undefined°

Span
Click to sort rows by Start time (UTC) header in descending order
Start Az.
Max El. time (UTC)
Max El. Az.
Max El.
End time (UTC)
End Az.
10 mins2025-06-16 20:25:24.289Z230.609° WSW2025-06-16 20:30:24.289Z269.71° W19.125°2025-06-16 20:35:24.289Z311.037° NW
8 mins2025-06-17 07:32:24.289Z16.674° NNE2025-06-17 07:35:24.289Z44.586° NE43.413°2025-06-17 07:40:24.289Z189.246° SSW
12 mins2025-06-17 17:36:24.289Z122.178° SE2025-06-17 17:42:24.289Z63.342° ENE30.526°2025-06-17 17:48:24.289Z7.009° NNE
|